Location: Buchdorf
(48.7842°N, 10.8275°E)
Time: 22:40:01
(UTC+00:00)

MOS 1 Rocket - Pass Details

Date: 09 April 2020
Orbit: 615 x 830 km, 97.4° (Epoch: 24 May)

Event Time Altitude Azimuth Distance (km) Brightness Sun altitude
Rises 19:14:29 0° 16° (NNE) 3,347 7.0 -12.3°
Reaches altitude 10° 19:16:53 10° 20° (NNE) 2,427 6.2 -12.6°
Maximum altitude 19:22:12 56° 99° (E) 985 3.7 -13.4°
Drops below altitude 10° 19:27:32 10° 177° (S) 2,426 5.8 -14.2°
Sets 19:29:55 0° 182° (S) 3,345 6.5 -14.5°
